Wind_Speed
12 5 4 7 8 10 11 12 13 12 11 12 11 10 11 10 9 12 13 13 14 13 15 18 15 13 16 18 16 16 16 14 16 20 23 26 31 35 30 31 37 36 36 35 35 35 33 31 29 30 35 35 33 32 30 30 29 27 28 26 27 32 31 29 29 27 27 28 26 24 22 21 21 20 20 20 19 19 18 16 13 13 13 13 14 13
10 6 7 11 12 13 12 12 13 14 15 14 12 11 11 11 10 12 14 14 16 12 10 14 16 18 18 14 16 19 16 12 16 18 22 28 32 38 35 33 38 37 36 37 36 35 33 32 30 31 34 35 34 33 31 31 29 28 28 25 27 33 33 31 31 29 29 29 27 25 22 22 24 23 22 21 21 19 18 17 15 14 13 14 14 13
5 7 12 15 12 12 12 12 13 14 15 13 11 10 9 10 9 11 15 15 14 11 8 11 16 19 17 12 12 17 17 20 26 24 26 32 31 32 34 35 38 37 38 39 37 36 34 33 31 32 34 36 36 35 32 31 30 30 28 25 28 34 34 32 32 30 29 28 26 24 22 24 25 23 23 22 21 19 18 17 16 15 14 14 14 13
5 8 13 14 11 12 13 13 14 12 12 12 11 9 10 11 9 8 13 16 13 11 9 9 12 12 12 12 11 16 23 27 33 35 34 32 28 30 35 37 39 41 41 42 39 38 36 33 33 33 35 38 38 36 35 34 33 32 29 26 29 34 34 32 32 29 28 27 26 23 22 24 24 23 22 22 21 20 18 17 15 14 14 14 14 13
9 11 12 11 12 14 14 13 13 11 8 12 15 13 10 13 15 9 9 13 12 11 13 9 6 8 11 14 12 16 21 23 30 37 36 28 26 34 38 38 43 45 46 45 42 41 39 36 35 35 37 39 39 38 38 37 36 32 29 27 28 33 34 32 31 28 27 28 26 24 24 25 26 25 24 23 23 21 20 18 16 14 14 14 13 13
11 16 15 12 12 14 15 13 12 11 8 10 16 18 16 15 17 15 10 11 8 8 14 14 8 5 11 16 14 14 14 15 20 25 30 29 26 31 32 34 42 45 47 47 45 44 41 38 38 38 38 41 40 40 39 38 36 31 27 26 27 32 34 32 30 29 29 29 28 28 28 29 30 28 26 23 22 21 21 20 18 16 16 15 14 14
8 14 14 12 12 13 14 13 12 13 9 8 12 17 21 19 18 19 15 10 8 7 10 14 11 3 6 15 16 15 14 15 15 14 22 28 26 30 29 31 41 43 44 47 46 45 43 41 42 41 40 41 41 40 39 38 36 31 27 26 28 32 35 32 31 31 31 31 30 30 29 29 29 28 25 23 21 20 20 20 19 18 16 15 15 15
7 10 9 9 11 11 10 10 11 13 11 9 10 13 20 22 21 22 17 9 7 7 7 13 13 5 4 11 13 15 16 16 16 13 16 20 26 33 31 33 41 43 44 46 46 46 45 44 45 44 43 42 41 40 39 38 35 32 28 27 29 33 35 34 32 32 33 32 31 30 29 27 26 25 23 22 22 20 19 20 19 18 17 17 16 17
6 7 5 6 8 8 9 9 11 15 13 10 12 13 17 21 22 20 14 10 8 6 8 12 13 8 5 7 10 14 17 18 18 17 14 15 26 34 32 35 42 45 47 47 47 47 46 46 45 45 44 42 40 38 38 37 34 32 29 27 29 33 35 35 34 33 33 33 32 31 29 27 25 23 22 23 22 21 20 20 19 19 19 18 18 18
6 8 8 6 6 7 10 11 11 15 14 12 15 15 15 17 19 17 12 9 9 7 9 13 15 11 5 6 9 12 16 17 15 14 13 15 26 34 32 37 44 47 47 48 48 48 47 46 45 44 43 41 39 37 36 35 34 33 30 29 30 33 34 36 35 35 33 33 33 32 30 28 26 24 23 23 22 22 21 21 20 20 19 19 20 19
10 13 12 8 8 8 10 13 14 16 16 15 16 14 12 14 14 11 9 7 7 8 10 15 18 14 7 5 10 10 10 13 13 10 12 16 25 31 32 38 45 47 46 47 48 48 46 45 44 43 41 38 37 37 36 35 35 34 32 32 32 33 35 36 36 35 33 33 33 31 30 29 27 25 24 23 23 23 23 22 21 20 20 20 20 20
12 11 8 8 12 11 9 12 14 16 18 16 13 10 8 10 9 7 7 6 7 8 11 15 17 15 10 6 9 10 8 13 14 12 14 15 22 29 33 40 46 47 46 47 47 46 45 44 43 42 40 37 38 38 38 37 36 35 34 34 34 35 37 37 36 35 34 34 32 30 29 28 27 25 24 23 23 23 24 23 22 21 21 21 21 21
8 8 7 7 12 13 9 8 10 12 15 14 12 9 8 7 6 6 7 5 7 9 10 12 13 13 10 6 10 14 14 14 14 15 17 18 24 30 34 41 46 47 47 46 45 46 45 44 43 42 40 39 40 41 40 39 37 36 35 35 35 36 38 37 35 35 35 34 31 30 29 27 26 24 23 22 22 23 24 23 22 22 22 22 22 22
5 8 10 9 9 13 12 7 7 9 11 12 12 9 8 7 6 7 7 7 9 9 9 12 11 10 7 5 12 16 15 16 19 21 25 28 32 33 37 44 46 46 46 45 46 47 46 46 44 43 42 41 42 42 42 40 39 37 37 37 37 37 38 37 35 35 35 33 31 29 29 27 25 24 23 22 22 23 23 22 21 21 21 22 22 21
4 6 8 10 7 9 12 11 12 11 8 10 11 10 9 7 6 7 7 7 7 5 7 13 11 8 6 6 14 15 12 17 25 27 29 35 39 38 40 44 44 44 44 45 47 47 47 47 45 44 44 43 44 43 41 40 39 38 38 39 39 38 38 37 36 36 34 33 31 29 28 26 25 24 23 22 21 22 22 21 19 19 20 21 21 21
6 7 5 10 11 10 11 15 16 13 7 7 10 11 10 8 6 5 5 6 5 3 5 8 6 4 4 5 13 15 12 12 20 25 26 31 38 37 38 42 43 43 44 45 47 46 47 47 46 46 45 44 44 43 41 40 39 39 40 40 41 40 38 37 36 35 34 33 32 30 29 27 25 24 23 22 22 21 21 19 17 18 19 20 20 20
4 6 3 5 12 14 14 13 14 13 7 4 7 10 11 10 7 4 5 5 4 5 6 5 3 2 4 4 8 15 16 12 15 19 19 25 35 34 34 42 44 43 44 45 46 47 47 48 47 46 45 44 44 43 42 40 39 40 41 42 42 40 38 36 35 34 33 33 32 31 30 28 26 25 24 23 22 22 20 17 17 19 20 20 20 19
3 7 6 7 12 18 19 13 9 13 11 4 4 7 8 11 10 4 4 4 3 5 5 5 5 4 7 5 6 13 18 14 15 17 15 21 30 28 31 41 44 44 45 45 46 49 49 49 48 46 45 45 44 42 41 40 39 40 41 42 42 41 38 36 35 34 33 32 31 31 30 28 27 26 25 24 23 22 20 17 18 20 21 21 19 18
2 5 8 10 12 14 15 8 5 11 14 11 10 8 5 7 8 5 4 4 5 4 4 5 6 5 7 6 6 14 17 12 13 15 15 19 22 23 29 39 42 43 45 44 45 48 48 49 49 46 45 45 43 41 41 41 40 40 41 41 41 41 39 36 34 34 33 31 30 30 29 28 28 28 27 25 23 22 20 18 19 22 22 20 19 18
3 2 5 6 7 7 6 5 5 7 11 14 13 10 7 5 5 4 4 3 4 3 3 4 5 4 5 6 9 15 14 10 11 13 15 17 20 25 29 35 41 44 45 46 46 47 48 50 48 44 43 43 42 42 42 41 40 40 41 39 39 40 38 35 34 33 32 29 29 29 28 28 29 29 28 25 23 21 19 19 20 22 21 19 18 19
3 3 3 2 3 5 4 6 7 6 7 9 8 7 6 6 4 3 4 3 3 3 3 4 4 5 5 5 9 12 11 12 15 15 15 16 22 29 32 36 42 44 46 47 47 47 48 49 46 42 40 41 42 43 43 41 40 40 39 37 38 39 36 34 33 31 30 30 30 30 29 29 28 28 26 24 22 21 19 19 22 22 20 18 18 19
3 3 3 2 1 3 7 6 6 7 7 5 4 6 6 6 5 2 4 4 2 3 3 4 4 6 6 5 8 9 8 12 16 16 14 16 24 30 33 41 46 46 46 47 47 48 49 48 45 42 41 42 43 44 44 42 40 39 38 37 38 37 34 31 31 31 31 31 32 32 31 30 28 26 25 23 22 21 20 22 24 23 20 18 19 19
3 1 2 3 3 6 6 4 4 8 11 8 7 8 7 7 6 3 3 5 3 3 4 3 3 6 6 6 9 8 8 11 14 15 12 18 30 33 35 44 48 47 47 48 49 49 49 48 45 42 41 42 42 43 43 40 39 38 38 38 38 37 33 30 30 30 31 32 33 33 32 31 29 26 25 24 22 21 22 24 25 22 20 19 19 18
3 1 2 3 3 3 4 6 6 8 11 10 9 8 7 9 9 6 5 4 3 4 4 3 3 6 7 5 9 9 11 12 13 16 17 19 28 35 39 44 46 46 47 49 50 50 49 47 44 42 41 40 40 42 41 39 39 38 38 38 38 36 33 30 30 30 31 32 33 33 33 31 29 27 25 24 23 22 23 25 25 22 20 20 19 19
3 1 1 2 2 2 2 5 6 6 6 5 6 9 10 13 14 11 7 2 3 6 4 5 4 7 6 2 8 10 13 13 10 17 25 24 25 32 39 43 44 45 47 48 49 48 47 45 43 42 41 40 39 41 41 40 40 39 38 37 36 34 32 31 32 32 32 33 33 33 32 30 28 26 26 25 23 23 25 26 25 23 21 21 21 20
3 1 1 1 0 2 2 3 5 5 4 3 6 11 13 16 16 10 4 1 4 7 5 5 4 6 4 4 9 9 11 12 9 14 24 27 29 35 38 41 44 46 47 48 49 48 46 45 43 42 42 40 38 41 43 42 40 38 36 36 35 33 32 32 33 32 32 32 33 33 31 29 27 26 26 25 24 24 26 26 25 23 21 20 20 18
1 1 3 3 5 4 3 3 3 3 4 4 7 11 13 17 16 7 2 3 4 3 3 4 6 5 2 4 9 9 8 10 9 10 15 22 31 37 40 42 46 47 48 49 49 48 47 45 44 43 42 40 39 43 45 42 39 37 36 36 34 33 32 33 34 32 32 33 33 32 30 29 27 27 26 25 24 25 27 27 25 22 19 18 17 15
3 1 4 5 8 9 7 7 6 5 7 8 8 10 12 15 14 8 6 6 2 2 2 5 4 7 3 2 5 6 6 8 9 9 14 23 32 37 40 43 44 46 47 48 49 48 47 45 44 42 41 39 40 44 44 41 38 37 36 35 34 34 35 35 34 33 33 34 34 31 30 28 27 26 25 25 25 26 28 27 24 21 18 16 15 13
2 1 4 6 8 10 8 7 8 8 8 11 11 10 10 13 15 11 5 1 3 4 3 5 2 7 3 5 5 2 2 2 9 17 23 29 34 37 39 41 42 44 45 46 48 48 47 46 44 42 41 40 41 44 43 40 38 36 35 34 33 36 38 36 34 33 33 34 33 31 29 27 26 25 24 24 27 28 28 26 23 21 18 15 13 11
2 1 4 7 9 9 8 7 8 8 8 12 13 12 12 17 19 11 2 4 5 3 3 2 6 7 3 3 4 5 7 2 12 25 29 29 32 35 38 39 40 42 44 45 46 47 47 47 45 43 42 40 40 43 44 42 40 37 36 35 35 37 38 36 35 34 33 33 32 30 29 27 26 26 24 25 29 30 29 26 23 21 18 15 12 11
2 1 2 4 5 7 8 7 7 7 7 10 13 14 16 19 16 6 2 4 3 2 4 4 7 6 3 2 3 7 11 9 13 24 27 29 33 34 34 36 39 41 42 43 45 45 45 46 44 43 42 40 40 43 45 43 40 38 36 36 37 38 37 37 36 35 35 33 31 30 29 28 27 26 25 27 31 31 29 26 24 21 18 15 13 11
2 0 2 4 3 5 8 7 5 6 7 9 14 16 17 13 7 2 1 2 2 1 4 6 6 3 5 4 6 9 13 11 9 18 25 31 37 37 35 35 38 41 42 43 44 44 45 45 44 42 42 41 40 42 45 43 40 39 39 37 37 38 38 38 37 37 36 34 31 30 29 29 28 26 26 30 33 32 29 26 24 21 18 16 14 11
2 1 2 3 2 5 9 6 2 4 6 7 10 11 10 5 3 1 0 2 3 4 2 0 1 1 3 6 8 9 11 10 5 11 23 30 35 38 39 40 41 42 43 45 45 45 45 46 44 42 42 41 39 41 44 43 40 40 40 39 38 39 39 38 37 37 36 34 32 31 30 29 28 26 27 32 34 32 29 27 25 22 19 17 14 12
2 3 2 2 1 5 9 4 4 3 4 7 7 7 6 1 6 4 2 3 4 4 3 3 4 1 4 7 7 7 8 8 7 9 19 26 30 34 37 41 43 44 44 46 47 46 44 44 43 41 40 39 37 39 42 42 39 39 39 39 39 39 39 38 37 36 35 33 31 30 29 29 28 26 28 34 35 33 30 28 26 22 20 17 15 13
3 4 2 0 1 4 8 4 3 2 7 6 6 9 8 0 7 6 4 3 4 4 2 1 4 6 6 6 7 10 12 11 9 11 12 13 19 26 32 37 41 43 43 44 46 44 42 41 42 40 39 37 36 38 42 42 39 38 39 39 40 40 39 38 37 36 34 32 31 30 29 29 28 27 29 35 36 34 32 29 26 24 21 18 16 14
5 3 2 1 1 2 4 1 3 5 7 7 9 11 8 3 4 5 3 2 4 5 4 1 0 4 7 7 10 16 17 12 9 9 11 8 7 14 27 37 39 41 44 44 43 43 42 42 42 41 40 37 37 40 43 42 39 38 39 40 40 40 40 39 37 35 33 32 31 29 28 28 28 27 31 36 37 35 33 30 27 25 22 19 17 16
6 4 2 1 1 2 2 3 3 5 7 6 8 7 5 4 6 6 2 4 6 6 7 4 1 2 7 9 11 16 17 12 5 3 8 9 4 8 22 36 40 41 42 42 42 42 42 43 42 40 38 36 37 41 43 42 40 39 38 39 40 40 39 37 36 33 32 30 29 28 27 28 28 28 32 37 37 35 33 31 28 27 24 21 19 18
6 5 4 2 1 1 1 2 3 4 4 7 7 6 6 4 6 8 3 5 7 5 4 8 5 4 7 8 10 13 12 8 2 4 1 7 6 10 21 31 36 39 40 40 40 40 41 42 41 38 36 35 37 40 42 42 41 39 38 39 40 39 38 36 35 33 31 29 28 27 26 27 27 29 34 38 37 36 34 32 30 29 26 24 22 20
6 4 5 3 1 1 1 0 3 3 5 7 7 7 9 5 7 8 2 5 8 7 2 10 10 7 8 9 8 9 7 3 3 7 8 9 12 16 24 29 33 38 40 41 42 41 40 41 39 36 34 35 37 40 42 42 40 39 39 39 39 38 37 35 34 31 29 28 27 26 26 26 27 30 35 37 38 37 36 33 31 30 28 26 23 21
5 4 3 2 2 1 1 2 3 3 6 7 5 8 10 3 11 9 2 6 6 10 2 10 11 8 12 14 10 7 6 5 5 9 13 14 15 19 26 31 34 39 42 42 42 41 40 39 37 35 34 35 38 40 41 41 40 39 39 38 37 37 36 34 31 28 27 27 27 27 27 27 28 31 34 37 37 36 35 33 32 31 30 28 25 21
2 2 2 2 2 2 2 3 3 4 6 6 6 13 13 1 9 5 6 8 7 14 5 13 16 12 16 18 10 6 6 5 10 15 16 16 17 20 25 30 33 37 41 42 41 40 39 37 35 34 34 35 38 41 42 41 40 40 39 38 37 36 35 33 30 28 27 28 27 27 26 26 28 29 31 33 35 35 35 34 34 33 32 29 25 22
1 1 0 1 1 2 2 2 2 5 4 7 15 19 11 2 6 5 5 3 7 11 11 16 16 13 17 17 10 6 6 5 7 10 10 12 17 21 27 32 35 38 39 40 40 39 37 36 34 34 35 35 37 40 41 41 40 40 39 37 36 35 34 33 30 29 30 30 28 26 25 25 26 27 28 31 34 36 37 37 36 35 32 29 25 22
1 1 1 2 2 1 1 0 1 3 5 16 21 14 5 2 5 4 1 5 9 14 17 18 18 16 17 15 11 10 11 11 11 12 10 5 3 9 23 31 34 38 40 39 39 37 35 35 36 37 37 35 35 36 36 37 38 38 36 35 35 35 35 33 31 31 32 30 27 25 23 23 26 27 29 31 34 37 38 38 37 35 31 29 26 23
2 1 1 1 0 2 2 2 1 3 10 17 14 7 6 4 4 6 6 7 11 16 18 19 19 16 15 14 14 14 14 13 11 9 10 11 15 14 20 27 29 32 34 34 33 31 30 34 36 37 37 37 37 37 36 35 36 36 34 35 36 36 35 33 32 32 33 31 29 25 22 23 27 29 30 31 34 37 38 37 36 33 30 27 25 23
1 2 1 2 2 1 3 4 6 8 12 15 13 14 19 11 11 14 11 10 12 14 16 18 17 16 14 14 16 16 15 13 11 9 10 10 12 14 20 24 25 24 22 22 24 25 27 32 35 35 35 35 36 37 35 33 33 33 33 33 34 35 35 34 33 33 33 32 30 27 24 24 27 29 30 32 34 35 36 36 35 32 28 25 23 23
4 4 2 1 1 1 2 5 9 10 12 16 17 18 24 18 13 16 15 14 14 14 16 15 15 15 14 13 14 16 15 13 12 11 12 15 17 17 18 21 22 21 19 21 24 25 28 31 32 34 36 34 32 33 33 31 30 30 31 32 32 33 34 32 31 33 34 33 32 30 28 28 28 28 29 31 33 33 34 35 34 31 29 27 25 23
2 3 1 1 2 1 1 6 10 9 11 17 20 18 20 19 15 18 16 16 15 15 15 15 14 16 15 13 14 15 13 12 12 13 15 20 24 24 22 22 21 21 22 24 23 23 25 26 25 28 32 32 30 30 30 29 28 28 30 31 31 31 30 29 28 30 31 33 34 35 34 32 30 29 29 30 31 32 33 33 32 30 28 27 25 24
3 1 1 2 3 1 1 5 10 7 12 20 21 14 15 18 19 16 14 16 17 15 14 14 14 16 18 16 15 15 14 13 15 18 21 22 22 22 23 24 22 22 24 24 20 18 20 21 21 24 28 29 29 28 28 28 29 29 30 30 29 28 29 28 26 25 25 28 32 35 35 32 31 31 31 30 30 31 31 31 30 28 27 26 25 24
6 4 3 3 4 2 1 5 9 6 10 18 19 15 16 20 20 15 12 15 19 19 17 17 16 17 18 16 15 15 17 17 17 19 21 20 18 19 22 24 23 22 23 23 20 16 16 18 20 24 26 26 25 25 26 28 30 31 31 29 27 26 27 26 25 24 24 25 30 33 34 32 32 33 31 29 28 29 30 31 30 28 27 26 24 22
5 3 3 3 2 2 2 5 6 2 3 9 14 17 20 20 19 16 14 12 13 17 20 22 21 21 21 19 15 15 17 17 16 18 21 20 19 21 23 23 21 20 21 22 21 17 16 17 18 20 21 20 19 20 21 24 27 29 29 29 28 27 28 28 27 26 26 27 31 33 33 33 34 33 31 28 28 30 31 31 30 29 27 25 22 19
4 2 2 3 2 3 3 5 4 3 3 7 13 18 18 15 17 19 16 13 11 13 19 24 24 24 25 24 20 17 18 18 17 18 21 21 20 21 21 20 19 20 22 23 21 18 17 19 19 19 19 18 20 21 21 23 27 29 28 28 27 25 25 25 25 27 29 29 30 31 33 34 34 32 30 29 28 29 31 31 31 30 27 23 20 18
Wind_Direction
196 203 212 213 222 223 223 226 237 254 257 260 264 254 246 243 236 227 221 215 215 221 215 211 216 223 225 220 224 239 235 218 213 218 223 223 223 228 216 182 174 174 173 177 171 170 174 176 182 186 185 189 194 197 199 197 195 193 189 185 184 185 186 191 193 192 186 180 181 186 188 182 176 174 180 190 192 193 198 198 195 199 203 205 206 209
197 209 225 218 222 227 231 234 233 242 252 257 258 258 253 244 238 232 227 216 211 222 217 200 209 223 227 216 207 226 245 240 226 218 216 220 218 222 218 186 174 174 172 172 169 169 174 175 182 184 184 189 194 196 196 195 196 192 186 187 190 188 190 194 196 194 185 180 183 186 184 178 175 180 188 195 198 200 200 198 198 200 203 205 207 209
226 219 227 224 224 231 236 241 240 237 240 248 252 253 258 254 240 230 234 229 210 215 225 202 209 219 216 208 201 210 227 236 234 228 220 220 215 211 206 186 172 168 166 167 166 169 173 175 181 183 184 189 193 194 193 195 196 189 187 193 194 191 193 194 196 193 184 181 185 186 183 180 181 186 194 201 203 201 199 197 198 202 206 206 206 206
243 231 229 225 223 232 237 239 241 242 235 235 244 243 245 252 248 223 225 235 224 208 222 215 209 215 205 203 210 213 221 227 229 232 231 226 218 210 203 188 172 163 163 164 164 167 172 175 179 182 185 188 191 192 192 194 193 189 193 198 193 192 194 192 192 188 181 181 186 188 187 186 190 195 199 203 204 201 199 198 199 204 207 205 205 205
229 237 237 231 224 225 234 240 236 239 238 230 234 239 242 244 252 256 223 229 235 213 214 217 205 210 205 202 211 221 225 221 217 225 234 232 221 214 204 186 173 167 164 164 163 166 171 175 179 183 187 187 189 192 192 193 192 193 199 201 195 192 191 189 187 182 181 183 185 189 190 190 196 200 200 200 199 200 200 200 200 203 206 206 207 205
229 231 231 234 232 222 225 234 232 231 240 237 231 233 242 246 252 264 244 215 228 225 211 210 216 225 206 202 207 214 220 221 212 215 228 229 215 205 195 176 170 167 165 166 166 168 173 176 179 184 187 187 189 191 191 193 193 196 202 204 199 193 189 187 182 179 185 188 187 192 193 194 197 198 200 200 199 200 201 202 204 207 209 208 206 203
245 233 224 231 243 237 227 226 229 232 236 241 232 228 238 249 253 259 257 225 219 233 216 210 218 243 208 202 201 202 210 222 219 207 217 220 208 197 189 171 166 165 163 166 168 170 175 176 177 181 185 187 188 188 190 194 195 199 204 203 199 193 189 185 180 181 190 192 193 198 199 199 199 198 199 201 202 204 203 205 208 209 208 205 201 199
250 251 234 229 243 251 240 224 220 229 237 242 235 224 230 241 247 252 259 258 240 232 227 223 218 215 216 204 190 190 207 222 223 213 207 205 196 193 188 171 166 165 164 165 168 171 175 177 178 180 182 185 188 189 190 193 197 200 203 203 197 192 190 186 182 186 195 198 198 200 199 200 201 200 201 201 203 205 207 209 208 205 202 198 198 199
249 268 261 243 246 253 251 236 215 224 239 245 241 232 227 235 243 247 254 264 265 244 226 224 217 215 222 202 183 185 201 217 220 212 199 187 186 187 181 169 166 167 168 168 170 173 175 177 179 180 181 185 189 191 192 194 199 200 201 202 195 191 191 188 186 191 198 202 202 200 197 198 201 203 204 204 202 203 207 209 206 201 198 195 197 202
250 244 242 250 250 245 250 247 224 223 237 246 249 242 230 236 241 243 246 253 267 263 231 214 208 218 227 183 184 194 202 211 214 207 192 178 179 180 174 166 165 167 170 171 173 175 177 177 178 179 181 185 190 193 194 198 202 199 201 203 196 193 192 189 190 195 199 204 205 202 199 199 201 203 204 203 202 203 205 205 202 199 197 195 198 204
265 238 223 230 244 254 265 255 237 230 233 240 249 245 231 235 238 240 243 242 256 264 245 221 207 209 228 202 193 200 199 201 203 198 186 179 178 177 171 166 165 167 169 171 173 174 175 176 176 178 181 185 189 192 196 200 201 199 203 203 196 193 192 190 194 196 198 203 206 205 203 202 204 204 204 204 204 205 205 204 202 198 197 196 200 207
268 247 221 222 235 252 277 268 253 240 232 232 241 239 226 229 230 234 238 230 235 247 244 229 210 201 218 218 198 207 207 198 196 190 183 180 179 177 170 167 167 168 170 170 171 170 170 171 173 177 182 186 189 193 196 199 199 200 202 201 196 193 191 192 195 196 198 204 206 205 204 204 206 207 208 210 212 212 209 207 204 199 198 199 201 208
254 250 251 247 239 241 252 264 261 247 232 228 234 234 222 216 209 213 225 225 229 238 242 230 207 198 216 195 178 206 215 203 196 188 182 177 177 176 168 165 168 169 170 169 168 168 168 170 173 178 184 189 191 193 195 196 197 198 199 198 195 191 190 193 195 195 199 205 206 204 204 205 206 209 213 216 219 218 213 209 206 201 201 201 203 208
250 248 238 238 243 234 227 235 250 243 229 222 224 226 219 204 194 201 209 218 225 227 231 234 216 192 209 184 175 202 213 202 195 188 180 173 175 175 166 165 168 169 170 169 168 169 171 173 177 181 187 190 192 192 193 194 195 196 195 195 194 190 189 193 195 196 200 205 205 204 204 207 209 211 214 216 220 219 213 209 208 205 204 204 206 209
251 264 226 212 207 208 217 227 234 236 236 230 226 227 229 216 202 200 197 209 228 234 220 231 226 185 190 195 183 199 213 196 191 186 177 172 174 172 165 165 167 168 170 170 170 172 174 176 179 182 187 191 192 192 192 193 194 195 195 194 193 191 191 194 197 198 201 203 203 203 204 208 212 214 214 215 217 214 209 208 208 206 205 205 207 210
241 259 237 215 205 195 216 226 226 232 246 247 231 225 230 225 212 212 223 215 197 211 224 226 228 176 177 198 183 195 218 201 186 182 173 170 173 168 161 163 166 167 169 170 170 171 173 176 180 183 187 191 192 191 191 193 194 195 196 195 194 194 194 196 197 198 201 203 201 201 203 207 211 214 215 212 207 204 205 207 207 205 203 203 208 211
239 264 300 241 223 214 221 223 217 219 233 270 237 221 225 235 238 218 237 247 166 187 236 227 224 150 155 219 200 196 212 208 185 181 171 167 170 166 159 163 167 167 168 169 169 170 172 176 180 184 187 189 190 190 191 193 194 196 197 196 195 196 196 197 198 198 201 203 202 202 203 207 210 213 214 211 202 199 203 206 206 203 200 201 206 211
230 270 285 261 239 222 222 229 229 224 227 258 256 228 224 239 255 237 211 250 181 196 241 210 197 158 158 218 227 197 206 204 182 178 169 164 168 165 159 164 167 166 167 168 169 170 173 177 180 184 187 188 189 189 191 193 195 197 198 197 196 196 197 197 197 199 201 203 204 203 201 204 208 211 212 209 205 203 206 206 203 200 199 201 206 210
186 283 282 255 237 219 214 219 248 240 231 237 256 273 266 239 248 242 209 218 185 198 248 204 188 178 178 203 203 198 208 197 171 171 165 163 168 164 158 161 164 163 163 165 167 170 173 176 180 184 186 188 188 189 191 194 196 197 198 198 198 198 198 197 198 201 204 204 202 200 198 201 206 207 207 208 207 208 210 209 203 199 200 205 209 210
153 270 297 254 211 190 188 190 212 231 227 233 250 271 279 257 235 223 220 218 170 181 236 204 192 215 210 192 184 198 203 180 163 164 162 164 167 164 158 157 159 160 161 164 167 170 172 176 181 184 185 186 187 189 192 195 197 198 199 200 200 201 200 198 199 203 205 201 197 197 198 201 204 204 203 205 205 206 209 208 202 199 201 207 210 208
155 206 277 294 142 150 191 202 197 204 213 224 238 249 259 265 260 247 246 238 171 164 187 179 200 249 245 191 185 196 189 172 166 159 161 165 165 164 158 153 156 159 162 165 167 169 173 177 182 185 186 186 187 190 192 195 197 198 200 201 201 200 199 198 199 203 202 196 194 197 198 199 203 202 199 200 200 202 205 203 199 198 202 206 207 208
179 204 244 300 56 202 224 213 198 223 236 227 227 241 251 254 248 243 242 238 208 183 175 153 185 246 247 186 182 193 174 165 162 152 158 163 160 161 155 151 156 159 161 164 166 169 173 177 181 184 186 187 189 191 192 194 196 198 200 200 199 199 199 198 199 200 198 194 193 198 198 198 203 202 197 196 196 198 201 197 195 198 203 205 207 208
192 238 278 271 246 236 248 257 238 252 264 267 256 251 261 262 243 203 213 221 225 244 221 167 184 248 247 189 177 181 157 152 154 143 150 163 160 159 153 151 156 158 160 163 166 169 173 176 180 184 186 189 190 190 191 193 195 197 200 199 198 200 199 196 195 196 196 193 193 197 199 200 204 202 198 196 195 196 197 193 194 199 203 205 208 208
209 252 298 279 259 255 299 308 276 255 261 266 263 262 273 270 250 230 228 202 192 246 233 170 212 262 268 207 171 164 144 146 149 138 143 159 160 156 151 151 154 154 157 162 164 168 172 176 179 183 187 189 189 188 189 191 193 196 200 199 199 199 197 193 194 196 197 194 193 197 200 202 205 203 199 197 197 197 194 192 195 199 202 207 210 208
219 236 270 314 357 40 355 310 273 248 247 252 266 271 274 274 262 247 247 217 198 235 198 148 206 257 275 179 144 145 139 143 149 142 147 155 154 151 149 149 151 151 154 160 162 166 171 175 180 185 188 190 188 187 188 191 194 198 199 198 196 195 194 194 196 197 199 196 194 198 202 204 206 204 200 198 198 197 194 193 195 199 203 208 210 207
178 265 230 323 55 146 179 225 223 220 228 237 259 266 272 276 268 248 237 215 222 243 215 160 200 257 284 88 118 131 129 137 148 141 147 153 150 148 148 147 149 150 154 159 163 168 173 177 182 186 189 191 187 184 186 191 195 197 197 195 194 193 193 193 195 197 198 196 195 198 203 207 208 205 200 198 198 197 194 194 198 201 204 208 208 205
87 270 221 244 247 249 271 270 245 222 229 243 253 264 276 282 279 269 246 230 220 254 268 208 189 197 211 106 127 138 126 135 149 132 136 146 147 147 148 148 150 152 156 160 164 169 174 177 182 186 188 190 186 183 186 190 193 193 193 192 193 194 192 191 194 196 195 195 197 200 205 209 209 204 199 197 198 197 194 195 200 202 205 206 204 202
60 275 248 266 261 267 290 310 312 287 260 261 257 261 273 279 283 278 240 237 223 81 311 272 187 152 150 69 120 136 123 138 149 131 135 145 146 148 149 150 152 153 156 161 165 170 174 177 182 185 187 189 186 183 185 188 190 190 191 190 190 190 189 189 192 194 195 196 199 203 206 209 209 204 199 197 197 194 193 196 199 201 204 204 200 200
95 272 289 303 290 287 297 308 309 299 285 282 271 263 267 268 273 269 236 251 40 112 214 287 41 105 88 10 16 32 21 177 156 139 140 146 146 148 149 149 152 155 158 162 166 171 175 178 182 185 187 187 185 183 184 186 188 189 191 190 187 187 190 191 192 193 195 197 200 203 205 208 209 206 201 196 194 192 193 196 198 199 202 200 195 197
80 330 315 309 296 297 304 297 289 293 301 295 278 259 249 252 260 263 191 78 50 109 193 283 55 73 75 27 352 337 350 16 143 136 135 140 142 145 148 150 154 158 160 163 167 172 176 180 184 186 187 187 185 183 184 187 189 190 190 189 187 188 192 194 194 194 195 197 199 201 204 208 210 208 202 195 192 192 193 195 198 200 199 194 191 196
62 282 307 314 298 294 297 289 277 273 278 290 290 275 256 252 258 261 112 85 46 21 311 337 47 40 337 10 15 1 22 54 131 138 136 140 143 144 147 150 155 159 162 165 168 172 176 180 184 185 185 186 185 183 185 188 190 189 189 188 188 189 193 194 194 194 195 197 199 200 204 210 210 207 200 194 192 192 193 196 199 200 197 193 191 197
90 201 333 353 350 300 290 281 271 282 286 289 295 285 265 252 246 229 126 88 109 123 330 352 39 12 312 4 31 21 34 52 118 140 141 147 148 149 151 155 159 162 165 167 168 172 177 181 184 185 185 185 184 183 185 187 188 188 188 189 188 189 193 194 194 194 195 198 200 202 207 211 210 205 197 192 192 192 193 198 201 199 196 196 196 200
92 69 11 23 25 297 285 272 279 352 335 287 272 270 259 230 131 104 98 122 146 143 132 76 160 260 337 37 36 27 40 40 52 129 144 150 152 154 157 160 163 166 167 169 171 174 179 183 186 187 186 185 184 185 186 185 185 188 189 189 188 189 192 194 194 194 195 198 201 206 210 212 210 204 195 192 192 193 195 199 202 201 198 199 202 207
88 88 52 43 51 296 296 315 56 19 296 253 247 262 274 82 101 118 191 177 160 153 161 172 159 120 39 58 54 45 62 53 40 103 137 147 151 155 159 163 166 168 170 172 175 177 180 184 186 186 185 185 185 185 184 182 184 189 190 188 187 189 192 193 193 194 197 200 205 209 212 212 209 202 195 192 192 194 197 201 204 204 202 203 208 212
112 105 88 162 146 296 309 357 73 252 248 252 278 283 287 52 134 172 214 197 169 169 171 117 110 102 78 69 73 70 71 77 86 91 102 130 147 151 156 164 168 170 172 176 178 179 181 184 185 184 184 184 185 184 182 182 185 189 189 187 187 189 191 192 193 196 200 202 205 210 213 211 206 200 195 193 194 197 200 203 206 207 206 207 213 220
138 136 143 196 186 290 308 252 193 256 274 284 285 278 280 271 183 200 251 255 211 177 142 124 98 105 93 72 72 74 70 75 101 96 83 103 154 158 159 166 172 175 178 180 180 180 183 184 184 184 183 183 184 184 182 184 188 188 186 186 188 188 189 192 194 196 200 203 206 211 214 210 205 201 197 195 196 198 201 203 207 209 208 208 213 221
145 144 115 54 222 214 286 273 276 315 315 285 266 260 253 221 178 168 208 264 240 195 154 153 254 92 93 77 77 84 77 66 58 54 86 106 162 201 174 170 175 180 181 180 181 183 185 185 184 184 184 183 183 184 183 185 189 188 184 184 187 188 189 191 193 195 198 203 209 214 213 207 204 201 197 196 197 199 201 204 207 210 210 210 215 220
148 146 137 131 223 226 10 323 309 323 293 250 251 263 255 217 152 142 174 277 280 256 149 131 147 141 103 85 86 91 82 66 17 273 168 115 138 184 177 173 176 180 179 178 179 181 182 183 184 184 185 185 184 184 185 186 189 189 186 184 185 188 189 190 193 195 197 204 211 214 212 210 208 203 198 198 200 201 203 206 208 211 211 213 219 222
148 124 121 123 241 301 75 326 262 257 254 248 258 277 265 218 128 112 171 265 285 296 90 123 141 146 121 115 109 99 94 100 231 243 223 179 158 163 171 174 175 178 180 180 182 182 179 180 182 182 183 184 184 185 185 186 188 189 186 183 183 186 188 190 193 196 200 208 212 210 210 211 211 205 201 202 204 206 207 208 209 211 212 215 220 221
126 99 107 134 227 217 157 261 251 245 269 270 280 304 291 194 113 96 214 240 284 313 325 134 139 138 130 126 114 111 136 176 214 216 207 191 172 164 170 174 173 174 177 178 179 180 177 177 178 178 180 183 184 184 184 186 189 190 187 184 184 187 190 193 196 199 206 212 210 207 208 211 210 208 207 208 209 209 209 209 209 211 213 215 218 219
96 119 152 163 235 253 225 226 248 263 269 265 287 310 313 32 113 120 219 225 295 327 355 126 134 138 132 123 113 130 164 207 212 197 187 184 182 174 173 175 175 174 173 173 173 174 174 175 177 177 179 183 184 183 184 186 189 189 187 185 187 190 193 194 195 198 202 205 205 207 213 216 214 211 211 212 210 208 208 209 210 211 211 213 215 215
66 85 118 141 202 272 210 177 276 273 286 332 323 317 325 94 164 210 238 270 342 1 49 99 112 111 111 109 108 125 137 156 173 166 167 184 188 180 173 172 169 168 168 167 169 171 171 171 173 175 178 183 182 179 180 185 188 187 184 184 187 191 191 191 193 196 198 198 201 207 216 220 218 214 211 210 209 208 207 208 209 208 208 208 209 209
42 44 301 198 179 167 163 130 292 244 311 339 334 328 351 115 201 225 346 30 49 64 73 79 84 90 95 98 102 103 103 107 100 75 58 58 88 145 160 159 155 157 161 161 163 167 167 167 170 173 177 183 185 183 184 186 186 185 184 185 188 188 188 190 194 196 195 195 199 207 215 216 212 208 205 204 206 207 206 206 205 204 204 205 205 206
31 61 275 265 238 131 180 239 270 246 296 325 339 334 320 339 72 76 68 65 69 79 84 81 82 90 92 93 103 103 95 98 95 70 56 45 38 69 128 142 142 145 150 152 156 162 164 166 169 173 176 181 185 188 191 191 186 185 187 189 188 187 188 191 195 196 196 198 204 211 212 205 201 200 199 201 204 205 204 204 203 201 202 204 206 209
151 201 224 287 299 166 178 245 285 290 308 336 358 336 320 340 68 80 79 82 74 77 90 90 87 90 92 97 108 111 104 101 94 78 79 81 71 91 122 137 143 142 143 150 157 160 165 169 171 173 175 177 178 180 185 188 187 187 189 189 189 190 190 191 194 197 199 203 208 213 212 204 200 199 200 202 205 206 206 204 202 202 205 209 212 216
198 201 181 63 275 232 194 274 301 318 333 355 15 358 334 345 55 83 80 78 74 76 86 90 89 91 96 102 107 110 118 123 108 90 94 109 121 131 137 138 141 145 152 160 161 160 165 171 172 171 172 175 177 178 180 184 188 191 192 191 190 192 193 194 199 202 204 207 211 216 215 209 203 201 203 206 209 209 207 206 205 207 211 215 217 221
223 196 133 23 308 309 270 298 316 339 350 1 21 20 351 358 49 76 67 58 60 69 76 79 84 91 96 98 101 107 123 132 121 116 121 122 124 132 139 138 139 146 152 154 155 159 165 170 170 169 170 174 178 181 183 184 189 196 197 193 190 190 193 197 203 208 210 211 213 215 214 208 204 203 205 207 209 208 206 206 208 213 218 220 222 225
310 318 16 340 311 296 157 307 320 350 23 21 20 7 352 16 45 55 49 46 48 59 79 86 85 89 91 90 94 103 112 119 121 123 126 123 121 129 137 139 143 149 148 145 147 156 165 172 174 172 173 175 178 183 187 187 189 194 196 194 193 193 194 198 206 213 213 210 210 210 208 206 204 205 205 205 207 209 209 210 214 220 226 230 232 234
306 323 1 360 328 317 38 342 331 350 34 27 15 1 13 37 48 46 49 51 43 48 74 92 89 85 86 87 95 103 107 112 121 124 121 118 120 132 139 138 141 149 148 143 145 154 161 167 171 171 174 177 178 182 185 186 188 192 193 194 196 197 197 201 209 216 214 209 206 207 207 207 207 206 206 206 208 212 214 215 218 224 229 233 236 241
332 357 29 34 356 316 333 344 343 8 25 0 3 15 29 44 55 55 60 70 53 44 61 79 83 80 81 85 96 107 109 110 116 123 121 117 120 132 138 137 140 149 147 142 146 155 157 160 165 168 172 180 186 186 184 186 190 193 196 199 201 202 206 211 213 213 211 207 206 207 207 207 205 205 206 208 209 210 211 213 217 222 226 228 233 238
3 351 14 22 336 290 309 333 356 45 36 360 21 33 34 42 60 62 64 84 87 60 59 72 77 75 75 78 83 94 103 106 111 121 124 121 122 132 139 138 141 147 144 140 147 160 163 164 167 167 168 180 190 188 184 186 189 191 196 201 202 203 209 215 213 208 206 206 206 208 209 207 204 204 205 207 210 212 212 213 214 217 221 225 229 232
Height
1475 1478 1480 1479 1478 1475 1474 1474 1473 1471 1470 1469 1467 1464 1459 1456 1453 1447 1444 1442 1440 1444 1443 1443 1447 1449 1450 1449 1447 1447 1447 1448 1450 1452 1455 1458 1460 1462 1466 1469 1470 1473 1475 1477 1479 1480 1482 1485 1489 1492 1496 1501 1504 1507 1509 1512 1515 1517 1520 1523 1525 1527 1529 1530 1531 1532 1534 1536 1537 1539 1541 1543 1545 1546 1547 1548 1549 1549 1550 1551 1552 1552 1553 1554 1555 1556
1473 1477 1476 1472 1472 1472 1471 1471 1471 1472 1471 1469 1467 1464 1458 1454 1450 1444 1441 1439 1437 1440 1440 1441 1445 1446 1445 1446 1445 1445 1447 1447 1447 1450 1452 1455 1457 1459 1462 1465 1467 1470 1472 1475 1478 1479 1481 1484 1487 1490 1495 1498 1501 1504 1507 1510 1513 1516 1519 1522 1524 1525 1526 1528 1529 1530 1532 1534 1535 1537 1539 1541 1542 1544 1545 1546 1547 1548 1549 1549 1550 1551 1552 1553 1554 1555
1474 1473 1469 1467 1468 1470 1470 1469 1469 1470 1470 1470 1467 1465 1462 1453 1446 1442 1438 1434 1433 1436 1438 1440 1443 1442 1442 1443 1442 1442 1444 1443 1444 1447 1449 1451 1453 1455 1458 1461 1463 1466 1469 1472 1475 1477 1478 1481 1485 1489 1493 1497 1499 1502 1506 1509 1512 1514 1517 1520 1522 1523 1524 1526 1528 1529 1531 1533 1535 1536 1538 1539 1540 1542 1543 1544 1545 1546 1547 1548 1549 1549 1550 1551 1552 1553
1475 1469 1463 1464 1467 1468 1469 1468 1468 1469 1468 1467 1465 1464 1462 1453 1448 1445 1438 1433 1430 1431 1435 1438 1440 1439 1439 1440 1438 1439 1440 1440 1442 1444 1445 1447 1449 1451 1454 1456 1458 1461 1465 1469 1471 1473 1477 1480 1483 1487 1492 1495 1498 1501 1505 1508 1510 1512 1515 1518 1519 1520 1522 1524 1526 1529 1531 1532 1534 1535 1537 1538 1538 1539 1540 1542 1543 1544 1545 1547 1548 1548 1549 1550 1551 1552
1469 1463 1461 1463 1465 1465 1467 1466 1466 1468 1467 1463 1461 1459 1458 1453 1448 1443 1437 1433 1431 1430 1430 1435 1443 1440 1434 1436 1436 1436 1438 1438 1439 1440 1441 1444 1446 1449 1451 1451 1453 1455 1458 1463 1467 1470 1473 1477 1480 1485 1489 1493 1496 1498 1502 1505 1507 1510 1513 1516 1517 1519 1521 1523 1525 1528 1529 1530 1531 1533 1535 1536 1536 1537 1538 1539 1541 1542 1544 1545 1546 1547 1548 1548 1549 1550
1461 1459 1460 1461 1461 1461 1463 1464 1463 1465 1466 1462 1456 1453 1454 1451 1446 1443 1437 1433 1437 1438 1428 1431 1450 1447 1431 1432 1434 1433 1436 1435 1434 1436 1437 1440 1443 1446 1448 1448 1449 1452 1454 1457 1462 1466 1469 1473 1477 1482 1486 1491 1493 1496 1500 1503 1506 1509 1512 1514 1516 1517 1520 1522 1524 1526 1526 1527 1529 1529 1530 1531 1532 1534 1536 1538 1539 1541 1542 1543 1544 1546 1546 1547 1548 1548
1455 1454 1456 1458 1458 1458 1459 1460 1460 1461 1464 1461 1452 1449 1451 1450 1447 1445 1439 1436 1439 1439 1427 1425 1444 1449 1436 1429 1428 1429 1431 1431 1432 1433 1434 1436 1440 1442 1445 1446 1447 1450 1453 1455 1459 1462 1466 1470 1474 1478 1484 1488 1491 1494 1499 1502 1504 1508 1510 1512 1514 1516 1518 1520 1523 1524 1524 1525 1526 1526 1527 1528 1530 1533 1535 1537 1539 1540 1541 1542 1543 1544 1545 1546 1546 1547
1452 1452 1454 1455 1456 1457 1457 1456 1456 1458 1460 1457 1448 1447 1449 1448 1447 1444 1442 1442 1435 1431 1428 1422 1428 1442 1440 1428 1421 1424 1428 1428 1429 1430 1431 1432 1435 1438 1441 1442 1444 1447 1451 1454 1457 1460 1463 1467 1470 1475 1481 1486 1489 1493 1497 1500 1502 1505 1508 1511 1513 1515 1517 1519 1520 1521 1521 1522 1524 1525 1527 1529 1531 1533 1534 1535 1537 1539 1540 1541 1542 1543 1544 1545 1545 1546
1451 1453 1453 1454 1456 1457 1455 1452 1452 1455 1456 1452 1447 1445 1444 1444 1444 1441 1444 1446 1436 1435 1437 1424 1421 1436 1437 1423 1417 1420 1423 1426 1426 1426 1428 1428 1430 1434 1436 1438 1441 1444 1448 1450 1454 1457 1460 1464 1468 1472 1478 1484 1488 1491 1494 1497 1500 1504 1507 1509 1511 1513 1515 1516 1518 1519 1520 1521 1523 1525 1527 1529 1530 1532 1533 1534 1536 1537 1538 1539 1541 1542 1543 1544 1544 1545
1451 1451 1451 1453 1455 1455 1452 1449 1449 1451 1451 1449 1447 1443 1440 1441 1439 1439 1444 1444 1441 1444 1440 1423 1417 1429 1432 1422 1417 1419 1419 1420 1422 1422 1423 1424 1426 1429 1431 1433 1437 1442 1446 1448 1451 1454 1458 1463 1467 1471 1477 1482 1486 1489 1492 1495 1498 1502 1505 1507 1509 1511 1513 1514 1516 1517 1518 1520 1521 1524 1526 1527 1529 1530 1532 1533 1535 1536 1537 1538 1539 1541 1542 1543 1543 1544
1449 1449 1449 1450 1451 1451 1450 1448 1446 1447 1447 1448 1446 1442 1441 1438 1435 1438 1440 1440 1449 1450 1435 1417 1409 1417 1430 1423 1411 1412 1412 1412 1416 1418 1419 1421 1422 1425 1427 1430 1434 1439 1443 1446 1449 1452 1457 1462 1466 1471 1476 1481 1485 1487 1491 1493 1496 1499 1501 1504 1507 1509 1511 1512 1514 1515 1517 1518 1520 1522 1525 1526 1527 1529 1530 1532 1533 1534 1535 1536 1538 1539 1541 1542 1543 1543
1448 1448 1446 1445 1447 1448 1450 1449 1445 1442 1443 1445 1443 1441 1443 1439 1437 1442 1440 1442 1454 1449 1426 1409 1402 1410 1424 1418 1404 1403 1405 1405 1409 1412 1415 1417 1419 1422 1425 1427 1432 1436 1440 1444 1448 1452 1456 1461 1465 1470 1475 1479 1482 1485 1487 1491 1493 1496 1499 1502 1505 1507 1508 1510 1512 1514 1515 1516 1518 1521 1523 1525 1527 1528 1529 1530 1531 1532 1533 1535 1537 1538 1540 1541 1541 1542
1448 1446 1443 1444 1445 1446 1449 1451 1448 1443 1439 1440 1440 1441 1445 1444 1445 1451 1449 1447 1448 1436 1416 1404 1402 1408 1410 1403 1399 1400 1400 1401 1402 1403 1407 1411 1414 1418 1421 1425 1429 1433 1437 1441 1445 1450 1454 1459 1463 1468 1473 1476 1479 1482 1484 1488 1490 1494 1497 1500 1502 1504 1506 1508 1510 1512 1514 1515 1517 1519 1521 1523 1525 1527 1528 1529 1530 1531 1532 1534 1535 1537 1538 1539 1540 1541
1450 1445 1441 1444 1444 1442 1445 1449 1451 1445 1436 1436 1436 1439 1443 1442 1448 1454 1450 1444 1436 1422 1410 1401 1400 1405 1403 1396 1392 1393 1394 1394 1394 1396 1400 1404 1409 1414 1417 1421 1426 1430 1434 1438 1442 1446 1450 1455 1459 1464 1469 1473 1477 1480 1482 1485 1488 1491 1494 1498 1500 1502 1504 1506 1508 1510 1512 1514 1516 1518 1520 1522 1524 1526 1527 1529 1529 1530 1531 1532 1534 1536 1537 1538 1539 1540
1456 1451 1439 1438 1438 1436 1438 1442 1445 1440 1434 1431 1428 1431 1433 1429 1435 1442 1437 1434 1428 1418 1409 1403 1398 1398 1398 1392 1385 1384 1386 1387 1388 1391 1395 1400 1404 1409 1414 1418 1424 1428 1432 1436 1439 1443 1447 1452 1457 1462 1467 1471 1474 1477 1480 1483 1486 1489 1492 1495 1498 1500 1502 1504 1506 1508 1510 1512 1515 1517 1519 1521 1522 1524 1526 1527 1528 1529 1530 1532 1534 1535 1537 1538 1539 1540
1455 1448 1432 1429 1429 1428 1432 1433 1434 1435 1434 1429 1423 1426 1426 1416 1415 1421 1419 1415 1415 1416 1411 1402 1393 1384 1383 1382 1377 1379 1382 1381 1384 1387 1390 1396 1400 1405 1411 1415 1421 1425 1430 1434 1437 1442 1446 1451 1456 1460 1464 1468 1472 1475 1478 1480 1483 1486 1489 1493 1496 1499 1500 1502 1504 1507 1509 1511 1514 1516 1518 1520 1521 1523 1524 1526 1527 1528 1530 1532 1533 1534 1536 1538 1539 1540
1453 1442 1429 1430 1427 1422 1425 1426 1427 1431 1431 1426 1422 1420 1414 1406 1405 1411 1413 1404 1405 1416 1409 1395 1390 1382 1380 1382 1377 1377 1379 1379 1382 1384 1387 1393 1396 1401 1407 1411 1417 1422 1427 1432 1435 1439 1445 1449 1454 1458 1462 1466 1470 1472 1475 1478 1481 1484 1487 1491 1495 1497 1499 1500 1503 1505 1508 1510 1513 1515 1517 1519 1520 1521 1523 1524 1526 1527 1529 1531 1532 1534 1535 1537 1538 1539
1450 1442 1430 1430 1429 1419 1419 1423 1423 1423 1425 1427 1425 1414 1405 1405 1403 1405 1412 1409 1410 1417 1405 1390 1392 1390 1391 1391 1381 1377 1378 1377 1379 1382 1386 1390 1393 1398 1404 1408 1413 1418 1424 1430 1434 1438 1442 1447 1453 1457 1461 1464 1467 1470 1473 1476 1479 1483 1486 1489 1492 1495 1496 1499 1501 1504 1506 1508 1511 1514 1516 1517 1518 1520 1522 1523 1525 1527 1528 1530 1531 1533 1534 1536 1537 1538
1448 1446 1429 1419 1421 1417 1417 1424 1425 1421 1421 1425 1421 1411 1411 1418 1413 1407 1411 1411 1413 1416 1404 1393 1391 1389 1389 1386 1380 1378 1378 1376 1378 1381 1385 1389 1391 1396 1401 1406 1411 1416 1423 1428 1433 1437 1441 1445 1451 1455 1459 1463 1466 1469 1472 1475 1478 1481 1484 1488 1491 1493 1495 1497 1500 1502 1505 1507 1510 1512 1514 1516 1517 1519 1520 1522 1524 1526 1528 1529 1530 1532 1533 1535 1536 1537
1446 1449 1435 1415 1412 1415 1417 1421 1425 1423 1419 1419 1418 1413 1415 1417 1409 1403 1401 1400 1404 1411 1407 1400 1395 1388 1380 1374 1373 1374 1373 1374 1378 1380 1384 1387 1389 1393 1399 1404 1409 1414 1420 1426 1431 1436 1440 1445 1450 1454 1458 1461 1464 1467 1470 1473 1476 1479 1482 1486 1489 1491 1494 1497 1499 1501 1503 1506 1508 1510 1512 1514 1516 1518 1519 1521 1523 1525 1527 1528 1529 1531 1533 1534 1535 1536
1443 1449 1441 1423 1414 1417 1418 1416 1417 1420 1418 1418 1420 1418 1416 1410 1400 1396 1394 1388 1393 1403 1405 1405 1403 1388 1371 1364 1367 1368 1367 1371 1374 1377 1382 1384 1387 1391 1396 1401 1407 1412 1418 1424 1429 1435 1439 1444 1449 1453 1457 1461 1464 1466 1469 1472 1475 1477 1480 1483 1486 1489 1492 1495 1497 1499 1502 1504 1506 1508 1510 1512 1514 1516 1518 1520 1522 1524 1526 1527 1529 1530 1532 1533 1534 1535
1441 1443 1439 1431 1424 1419 1413 1408 1410 1414 1413 1414 1415 1413 1411 1407 1400 1404 1404 1389 1385 1393 1393 1398 1402 1386 1365 1360 1362 1362 1364 1366 1368 1373 1379 1382 1386 1391 1394 1399 1405 1411 1417 1422 1427 1433 1438 1443 1447 1452 1456 1459 1461 1464 1467 1470 1472 1475 1478 1481 1485 1488 1491 1493 1495 1498 1500 1502 1505 1506 1508 1511 1512 1515 1517 1519 1521 1523 1524 1526 1528 1529 1531 1532 1533 1534
1434 1436 1434 1430 1424 1417 1410 1408 1410 1413 1411 1411 1411 1405 1403 1401 1398 1405 1407 1393 1387 1388 1381 1385 1396 1382 1360 1355 1357 1358 1361 1364 1366 1370 1376 1381 1384 1389 1394 1399 1403 1409 1415 1421 1426 1432 1436 1441 1446 1450 1454 1456 1458 1461 1465 1467 1469 1472 1475 1479 1483 1486 1489 1492 1494 1497 1499 1501 1503 1505 1507 1509 1511 1513 1516 1518 1520 1521 1523 1525 1527 1528 1530 1531 1532 1533
1431 1433 1434 1427 1418 1414 1412 1410 1410 1412 1413 1413 1409 1402 1401 1401 1394 1393 1392 1385 1388 1391 1382 1388 1397 1380 1358 1353 1355 1357 1359 1362 1365 1369 1374 1380 1384 1387 1392 1398 1403 1409 1415 1420 1426 1431 1435 1440 1444 1448 1451 1453 1456 1459 1463 1465 1467 1470 1474 1478 1482 1485 1488 1490 1493 1496 1498 1500 1502 1504 1506 1508 1509 1512 1514 1516 1518 1520 1522 1524 1526 1527 1529 1530 1531 1532
1431 1432 1433 1429 1423 1424 1426 1424 1418 1414 1414 1414 1409 1403 1402 1400 1392 1387 1383 1382 1390 1388 1382 1391 1395 1376 1358 1354 1355 1356 1358 1362 1365 1368 1372 1378 1383 1387 1391 1396 1402 1408 1414 1420 1425 1430 1434 1438 1441 1445 1449 1450 1454 1458 1460 1463 1466 1468 1472 1476 1480 1483 1486 1489 1491 1494 1496 1498 1501 1502 1504 1506 1508 1510 1513 1515 1517 1519 1521 1523 1525 1526 1528 1529 1531 1531
1430 1431 1431 1431 1429 1429 1430 1426 1419 1412 1410 1411 1407 1401 1399 1396 1390 1388 1386 1389 1394 1385 1378 1385 1384 1370 1360 1357 1357 1358 1360 1363 1366 1369 1372 1376 1381 1386 1391 1396 1401 1407 1413 1418 1423 1428 1432 1436 1439 1443 1446 1448 1452 1456 1459 1461 1464 1467 1471 1475 1479 1481 1484 1487 1490 1492 1495 1497 1499 1501 1503 1505 1507 1509 1512 1514 1516 1518 1520 1522 1524 1526 1527 1529 1530 1531
1428 1428 1427 1428 1428 1425 1421 1414 1407 1405 1407 1407 1403 1398 1396 1391 1386 1386 1389 1392 1390 1383 1380 1379 1371 1367 1367 1361 1360 1361 1362 1365 1368 1370 1373 1377 1381 1385 1390 1395 1400 1405 1411 1416 1421 1426 1430 1433 1437 1441 1444 1447 1450 1455 1458 1460 1463 1467 1471 1474 1477 1480 1482 1485 1488 1491 1494 1496 1498 1500 1502 1503 1506 1508 1510 1513 1515 1517 1520 1521 1523 1525 1526 1528 1529 1530
1426 1427 1422 1422 1422 1418 1415 1410 1405 1405 1405 1403 1399 1396 1394 1389 1385 1388 1389 1385 1381 1383 1386 1378 1367 1370 1374 1368 1365 1365 1363 1366 1369 1370 1373 1378 1381 1385 1390 1395 1400 1405 1410 1414 1419 1423 1427 1431 1436 1440 1443 1446 1449 1454 1457 1460 1463 1467 1470 1473 1475 1478 1480 1484 1487 1489 1492 1494 1496 1498 1500 1502 1505 1507 1509 1512 1514 1517 1519 1520 1522 1524 1526 1527 1528 1529
1423 1426 1420 1418 1417 1412 1410 1410 1407 1407 1405 1402 1398 1395 1394 1392 1388 1389 1386 1379 1378 1384 1387 1382 1374 1376 1378 1375 1371 1369 1366 1367 1368 1369 1373 1377 1381 1386 1390 1395 1400 1405 1409 1413 1417 1421 1425 1430 1434 1438 1442 1445 1448 1452 1456 1459 1463 1466 1469 1472 1474 1476 1479 1482 1485 1488 1490 1493 1495 1497 1499 1501 1504 1506 1508 1511 1513 1515 1518 1520 1522 1523 1525 1526 1527 1529
1422 1425 1422 1420 1416 1410 1408 1409 1408 1407 1407 1405 1400 1396 1396 1394 1389 1388 1384 1378 1378 1382 1384 1382 1379 1377 1378 1376 1372 1369 1366 1365 1367 1369 1374 1379 1383 1386 1390 1395 1399 1404 1408 1412 1416 1420 1424 1428 1433 1437 1440 1443 1446 1450 1454 1458 1462 1465 1468 1470 1472 1475 1477 1480 1484 1486 1489 1491 1494 1496 1498 1500 1502 1505 1507 1509 1512 1514 1516 1518 1520 1522 1524 1525 1526 1528
1424 1426 1425 1423 1419 1412 1408 1408 1407 1406 1407 1407 1402 1397 1395 1390 1387 1387 1384 1379 1380 1384 1384 1380 1377 1377 1377 1373 1371 1368 1365 1365 1368 1370 1375 1381 1384 1387 1392 1395 1399 1403 1408 1411 1415 1419 1423 1428 1431 1435 1438 1440 1443 1447 1452 1456 1460 1464 1467 1468 1470 1472 1475 1479 1482 1485 1488 1490 1492 1495 1497 1499 1501 1503 1506 1508 1510 1513 1515 1517 1519 1521 1523 1524 1526 1527
1425 1427 1426 1425 1425 1417 1408 1407 1407 1404 1405 1406 1402 1398 1394 1389 1388 1388 1384 1380 1384 1389 1389 1384 1381 1380 1375 1370 1369 1369 1367 1369 1371 1371 1374 1380 1383 1387 1392 1396 1400 1403 1407 1411 1415 1419 1422 1426 1430 1432 1435 1438 1441 1445 1450 1454 1459 1463 1465 1466 1468 1471 1474 1477 1481 1484 1487 1489 1491 1494 1495 1497 1500 1502 1504 1507 1509 1512 1514 1516 1518 1520 1522 1523 1525 1526
1426 1428 1429 1430 1430 1421 1409 1406 1404 1406 1412 1410 1400 1392 1388 1385 1386 1386 1383 1382 1384 1387 1389 1387 1383 1378 1373 1369 1371 1372 1373 1376 1376 1375 1376 1379 1382 1386 1390 1394 1398 1402 1406 1410 1414 1417 1421 1424 1427 1430 1433 1436 1440 1444 1448 1453 1457 1460 1462 1464 1466 1469 1472 1476 1479 1483 1485 1488 1490 1492 1494 1496 1498 1501 1503 1505 1508 1511 1513 1515 1517 1519 1521 1523 1524 1525
1427 1428 1431 1434 1432 1425 1414 1404 1404 1415 1420 1406 1389 1383 1381 1380 1382 1386 1388 1386 1382 1380 1381 1379 1377 1375 1373 1372 1374 1376 1378 1380 1380 1381 1381 1382 1384 1386 1389 1393 1397 1401 1405 1409 1412 1416 1420 1423 1426 1429 1432 1436 1440 1444 1448 1453 1457 1459 1461 1463 1466 1468 1471 1474 1478 1481 1484 1487 1489 1491 1493 1495 1497 1500 1502 1505 1507 1510 1512 1514 1516 1518 1520 1522 1523 1524
1428 1430 1434 1436 1433 1429 1420 1411 1416 1421 1409 1390 1382 1381 1379 1378 1379 1382 1384 1382 1378 1377 1377 1375 1375 1375 1375 1375 1375 1377 1380 1381 1382 1385 1386 1387 1388 1389 1391 1394 1397 1400 1404 1408 1411 1415 1419 1421 1425 1428 1432 1436 1440 1444 1448 1452 1455 1457 1459 1461 1465 1467 1470 1473 1477 1480 1483 1486 1488 1490 1491 1493 1496 1499 1502 1504 1506 1509 1511 1513 1515 1517 1519 1520 1522 1524
1425 1430 1433 1433 1433 1432 1425 1420 1421 1412 1393 1383 1384 1382 1378 1379 1379 1382 1384 1381 1378 1378 1377 1376 1377 1375 1374 1376 1377 1378 1381 1382 1383 1387 1389 1390 1392 1393 1394 1395 1398 1401 1403 1406 1410 1414 1417 1420 1422 1426 1430 1435 1439 1443 1447 1450 1452 1454 1457 1460 1464 1466 1469 1472 1475 1478 1482 1484 1486 1488 1490 1492 1496 1498 1501 1503 1505 1507 1509 1512 1514 1516 1518 1519 1521 1523
1421 1427 1430 1430 1431 1430 1426 1420 1414 1406 1395 1388 1385 1380 1378 1379 1377 1380 1386 1383 1377 1376 1375 1376 1379 1378 1376 1378 1379 1380 1382 1384 1385 1387 1388 1390 1393 1395 1395 1395 1397 1400 1402 1406 1410 1413 1416 1419 1422 1425 1430 1434 1439 1443 1445 1448 1450 1453 1456 1459 1462 1466 1468 1471 1474 1477 1480 1483 1484 1487 1489 1492 1494 1497 1499 1501 1504 1506 1508 1510 1513 1515 1516 1518 1520 1521
1415 1420 1425 1429 1429 1427 1428 1423 1418 1414 1405 1391 1383 1378 1375 1375 1373 1375 1384 1385 1376 1373 1374 1376 1380 1380 1378 1379 1381 1381 1383 1388 1390 1388 1387 1390 1393 1394 1396 1396 1397 1400 1402 1406 1410 1412 1415 1419 1422 1426 1430 1434 1438 1442 1444 1446 1449 1452 1456 1458 1461 1465 1468 1470 1473 1476 1479 1481 1483 1486 1488 1491 1493 1495 1497 1500 1502 1504 1507 1509 1511 1512 1514 1516 1518 1519
1413 1417 1421 1427 1429 1428 1430 1428 1424 1419 1403 1385 1380 1379 1376 1375 1372 1374 1388 1391 1378 1372 1374 1376 1379 1380 1379 1380 1383 1383 1387 1394 1394 1388 1386 1389 1391 1391 1392 1394 1396 1399 1401 1404 1407 1410 1414 1418 1422 1426 1430 1433 1437 1440 1442 1445 1448 1452 1455 1458 1460 1464 1466 1469 1472 1475 1478 1480 1483 1485 1488 1489 1491 1494 1496 1498 1500 1502 1504 1506 1508 1510 1512 1514 1516 1517
1416 1420 1422 1426 1429 1428 1429 1428 1423 1413 1397 1384 1382 1381 1378 1374 1372 1383 1400 1396 1379 1373 1375 1375 1377 1379 1377 1379 1383 1386 1390 1393 1391 1386 1385 1388 1390 1391 1391 1391 1393 1395 1398 1401 1404 1408 1413 1418 1422 1426 1429 1433 1436 1438 1441 1444 1448 1452 1455 1457 1460 1462 1465 1468 1471 1474 1477 1480 1482 1484 1486 1487 1489 1491 1493 1495 1497 1500 1502 1503 1505 1508 1510 1512 1514 1515
1419 1421 1421 1423 1425 1424 1424 1424 1419 1407 1393 1385 1383 1381 1377 1375 1379 1392 1400 1390 1377 1376 1376 1374 1377 1378 1376 1378 1383 1386 1389 1389 1387 1387 1387 1388 1389 1390 1390 1391 1392 1394 1396 1399 1403 1407 1412 1417 1422 1425 1429 1432 1435 1437 1440 1444 1447 1451 1454 1457 1459 1462 1464 1468 1471 1474 1476 1478 1480 1482 1484 1485 1487 1489 1491 1493 1496 1499 1500 1502 1503 1505 1507 1509 1511 1513
1421 1421 1420 1421 1422 1421 1420 1421 1419 1407 1393 1387 1384 1378 1375 1380 1388 1392 1389 1382 1380 1380 1377 1376 1378 1378 1377 1379 1383 1386 1388 1388 1389 1390 1390 1390 1390 1390 1389 1390 1392 1394 1397 1400 1403 1407 1412 1418 1422 1426 1429 1432 1435 1437 1440 1443 1447 1450 1453 1456 1458 1461 1465 1468 1470 1473 1475 1477 1478 1480 1482 1483 1485 1487 1490 1492 1494 1497 1498 1500 1502 1504 1505 1507 1510 1512
1422 1422 1421 1418 1419 1421 1421 1422 1422 1410 1397 1392 1390 1383 1379 1384 1388 1386 1383 1382 1382 1380 1379 1379 1379 1378 1379 1381 1384 1387 1389 1389 1391 1392 1393 1393 1394 1393 1392 1392 1393 1395 1397 1400 1405 1409 1413 1418 1423 1426 1429 1433 1436 1438 1440 1444 1447 1450 1453 1456 1458 1461 1465 1467 1469 1471 1474 1476 1478 1479 1481 1482 1484 1486 1489 1491 1493 1495 1497 1498 1501 1503 1505 1506 1508 1510
1424 1424 1424 1420 1418 1420 1422 1421 1418 1411 1403 1399 1398 1394 1389 1387 1385 1382 1383 1384 1382 1381 1381 1381 1379 1380 1382 1383 1386 1389 1390 1391 1393 1395 1396 1397 1398 1398 1397 1397 1399 1400 1402 1405 1408 1411 1415 1419 1424 1427 1430 1434 1436 1439 1441 1444 1447 1450 1453 1456 1459 1461 1464 1466 1468 1470 1473 1475 1476 1478 1480 1482 1483 1485 1488 1489 1491 1494 1496 1498 1500 1502 1504 1506 1508 1509
1425 1424 1424 1424 1421 1418 1420 1419 1415 1410 1405 1400 1398 1397 1394 1389 1385 1383 1383 1383 1383 1383 1382 1381 1381 1383 1384 1385 1388 1389 1391 1393 1395 1396 1397 1399 1402 1404 1404 1403 1403 1406 1410 1413 1415 1415 1418 1422 1425 1429 1432 1434 1436 1439 1442 1445 1448 1450 1453 1456 1458 1461 1463 1465 1467 1469 1471 1473 1475 1477 1479 1481 1482 1484 1486 1488 1490 1492 1495 1497 1499 1502 1504 1506 1507 1508
1422 1420 1421 1423 1421 1417 1417 1417 1412 1407 1404 1401 1397 1396 1395 1391 1386 1384 1384 1385 1385 1385 1384 1383 1384 1385 1386 1388 1389 1390 1393 1395 1395 1397 1398 1399 1402 1406 1407 1408 1409 1410 1415 1419 1419 1419 1421 1424 1427 1430 1433 1436 1438 1440 1442 1446 1448 1451 1453 1456 1458 1461 1463 1465 1467 1469 1471 1472 1474 1476 1478 1479 1481 1483 1485 1488 1490 1492 1494 1496 1498 1501 1503 1504 1506 1507
1419 1418 1418 1420 1420 1418 1418 1415 1409 1406 1404 1401 1397 1397 1398 1395 1388 1385 1387 1388 1388 1388 1387 1387 1388 1389 1390 1390 1391 1392 1394 1395 1395 1397 1398 1400 1403 1405 1408 1411 1413 1415 1418 1421 1422 1423 1425 1427 1429 1431 1433 1436 1439 1441 1443 1446 1449 1451 1453 1455 1458 1461 1463 1465 1467 1469 1470 1472 1473 1475 1476 1478 1479 1482 1484 1487 1489 1492 1494 1495 1497 1499 1500 1502 1504 1506
1419 1418 1418 1419 1420 1419 1418 1414 1410 1407 1404 1401 1401 1403 1403 1397 1390 1388 1390 1391 1390 1391 1391 1390 1392 1393 1392 1392 1393 1394 1395 1396 1397 1398 1399 1401 1404 1407 1409 1412 1415 1418 1421 1422 1424 1426 1428 1430 1433 1434 1436 1438 1440 1442 1445 1447 1449 1451 1452 1454 1457 1460 1462 1465 1466 1467 1468 1470 1472 1473 1475 1477 1479 1480 1483 1486 1488 1491 1493 1494 1496 1498 1499 1500 1502 1504
1420 1420 1420 1421 1421 1418 1415 1413 1411 1409 1406 1406 1408 1407 1402 1397 1395 1394 1394 1394 1394 1395 1394 1394 1395 1396 1395 1395 1396 1396 1397 1399 1400 1401 1402 1404 1406 1409 1411 1413 1415 1420 1422 1422 1424 1428 1430 1432 1434 1436 1438 1440 1442 1444 1446 1448 1449 1450 1451 1453 1456 1459 1461 1463 1464 1465 1467 1468 1470 1472 1474 1476 1478 1479 1482 1485 1487 1489 1491 1493 1495 1496 1498 1499 1501 1503
1421 1422 1422 1422 1423 1421 1418 1416 1415 1413 1411 1411 1410 1406 1401 1401 1401 1400 1399 1399 1400 1401 1399 1397 1398 1398 1397 1397 1398 1399 1400 1402 1403 1403 1405 1406 1408 1410 1413 1414 1416 1420 1422 1421 1424 1428 1431 1434 1436 1438 1440 1442 1443 1445 1447 1449 1450 1451 1452 1454 1456 1458 1460 1462 1463 1464 1466 1467 1468 1471 1473 1476 1477 1479 1481 1484 1485 1487 1489 1491 1493 1495 1497 1499 1500 1501
1422 1423 1423 1423 1424 1421 1418 1417 1415 1414 1413 1412 1409 1406 1405 1406 1406 1406 1405 1405 1406 1406 1403 1399 1399 1400 1400 1399 1401 1402 1403 1404 1406 1406 1407 1409 1411 1413 1415 1416 1418 1421 1423 1423 1426 1430 1433 1435 1438 1440 1442 1443 1445 1446 1448 1449 1450 1451 1452 1454 1456 1459 1461 1461 1462 1463 1464 1466 1468 1470 1472 1475 1476 1477 1480 1482 1484 1485 1487 1489 1491 1493 1495 1497 1498 1499